When you browse on this site, cookies collect data to enhance your experience and personalize the content and advertising you see.
Visit our Privacy Policy to learn more. By continuing to use the site, you agree to this use of cookies and data.
  • In Austria
  • List of Countries
  • For 7 days
  • Water Temperature
  • Satellite Maps
  • Weather Map
  • News
  • Weather Widgets
  • user-avatar
    Login

    Hourly Weather Yulara

    Today, 24 March, Sunday

    Time Temperature Precipitation Wind Pressure Humidity
    00:00 +31°C° 0 mm 12 mps 713 mmHg 34%
    01:00 +29°C° 0 mm 11 mps 713 mmHg 38%
    02:00 +28°C° 0 mm 10 mps 713 mmHg 42%
    03:00 +27°C° 0 mm 9 mps 713 mmHg 43%
    04:00 +27°C° 0 mm 8 mps 713 mmHg 44%
    05:00 +27°C° 0 mm 8 mps 713 mmHg 46%
    06:00 +26°C° 0 mm 7 mps 714 mmHg 47%
    07:00 +28°C° 0 mm 7 mps 714 mmHg 43%
    08:00 +30°C° 0 mm 7 mps 714 mmHg 39%
    09:00 +34°C° 0 mm 5 mps 715 mmHg 35%
    10:00 +35°C° 0 mm 4 mps 715 mmHg 33%
    11:00 +37°C° 0 mm 4 mps 715 mmHg 30%
    12:00 +38°C° 0 mm 3 mps 714 mmHg 28%
    13:00 +37°C° 0.1 mm 5 mps 714 mmHg 31%
    14:00 +36°C° 0.1 mm 7 mps 713 mmHg 34%
    15:00 +35°C° 0.1 mm 9 mps 713 mmHg 38%
    16:00 +33°C° 0.5 mm 10 mps 713 mmHg 44%
    17:00 +31°C° 0.5 mm 10 mps 713 mmHg 50%
    18:00 +29°C° 0.5 mm 10 mps 713 mmHg 56%
    19:00 +29°C° 0.5 mm 9 mps 713 mmHg 56%
    20:00 +29°C° 0.5 mm 7 mps 714 mmHg 56%
    21:00 +29°C° 0.5 mm 6 mps 714 mmHg 55%
    22:00 +28°C° 0 mm 6 mps 714 mmHg 56%
    23:00 +28°C° 0 mm 6 mps 714 mmHg 56%

    Tomorrow, 25 March, Monday

    Time Temperature Precipitation Wind Pressure Humidity
    00:00 +28°C° 0 mm 6 mps 715 mmHg 56%
    01:00 +27°C° 0 mm 6 mps 714 mmHg 57%
    02:00 +27°C° 0 mm 6 mps 714 mmHg 59%
    03:00 +26°C° 0 mm 6 mps 714 mmHg 60%
    04:00 +26°C° 0 mm 6 mps 715 mmHg 61%
    05:00 +26°C° 0 mm 7 mps 715 mmHg 62%
    06:00 +24°C° 0 mm 7 mps 715 mmHg 63%
    07:00 +26°C° 0 mm 8 mps 716 mmHg 61%
    08:00 +26°C° 0 mm 9 mps 717 mmHg 58%
    09:00 +26°C° 0 mm 10 mps 717 mmHg 55%
    10:00 +28°C° 0 mm 10 mps 717 mmHg 50%
    11:00 +29°C° 0 mm 10 mps 717 mmHg 45%
    12:00 +32°C° 0 mm 10 mps 717 mmHg 40%
    13:00 +33°C° 0 mm 10 mps 717 mmHg 37%
    14:00 +33°C° 0 mm 10 mps 716 mmHg 35%
    15:00 +34°C° 0 mm 9 mps 716 mmHg 32%
    16:00 +33°C° 0 mm 9 mps 716 mmHg 33%
    17:00 +32°C° 0 mm 9 mps 717 mmHg 33%
    18:00 +32°C° 0 mm 9 mps 717 mmHg 34%
    19:00 +29°C° 0 mm 9 mps 718 mmHg 32%
    20:00 +28°C° 0 mm 9 mps 719 mmHg 30%
    21:00 +26°C° 0 mm 9 mps 719 mmHg 28%
    22:00 +24°C° 0 mm 9 mps 719 mmHg 29%
    23:00 +23°C° 0 mm 8 mps 719 mmHg 30%

    Day after tomorrow, 26 March, Tuesday

    Time Temperature Precipitation Wind Pressure Humidity
    00:00 +22°C° 0 mm 8 mps 719 mmHg 32%
    01:00 +21°C° 0 mm 8 mps 719 mmHg 34%
    02:00 +20°C° 0 mm 8 mps 719 mmHg 36%
    03:00 +20°C° 0 mm 8 mps 719 mmHg 39%
    04:00 +18°C° 0 mm 8 mps 719 mmHg 42%
    05:00 +17°C° 0 mm 8 mps 719 mmHg 45%
    06:00 +16°C° 0 mm 8 mps 720 mmHg 49%
    07:00 +17°C° 0 mm 9 mps 720 mmHg 46%
    08:00 +18°C° 0 mm 9 mps 721 mmHg 44%
    09:00 +19°C° 0 mm 9 mps 721 mmHg 42%
    10:00 +22°C° 0 mm 9 mps 721 mmHg 35%
    11:00 +24°C° 0 mm 9 mps 721 mmHg 29%
    12:00 +28°C° 0 mm 8 mps 721 mmHg 23%
    13:00 +29°C° 0 mm 8 mps 720 mmHg 21%
    14:00 +31°C° 0 mm 8 mps 720 mmHg 18%
    15:00 +32°C° 0 mm 8 mps 719 mmHg 16%
    16:00 +31°C° 0 mm 8 mps 719 mmHg 17%
    17:00 +29°C° 0 mm 8 mps 719 mmHg 18%
    18:00 +28°C° 0 mm 7 mps 719 mmHg 19%
    19:00 +27°C° 0 mm 7 mps 720 mmHg 21%
    20:00 +24°C° 0 mm 7 mps 720 mmHg 23%
    21:00 +23°C° 0 mm 6 mps 721 mmHg 25%
    22:00 +22°C° 0 mm 6 mps 721 mmHg 27%
    23:00 +21°C° 0 mm 6 mps 721 mmHg 29%

    27 March, Wednesday

    Time Temperature Precipitation Wind Pressure Humidity
    00:00 +20°C° 0 mm 6 mps 721 mmHg 31%
    01:00 +19°C° 0 mm 5 mps 720 mmHg 33%
    02:00 +19°C° 0 mm 5 mps 720 mmHg 35%
    03:00 +17°C° 0 mm 5 mps 720 mmHg 36%
    04:00 +16°C° 0 mm 5 mps 720 mmHg 37%
    05:00 +16°C° 0 mm 5 mps 720 mmHg 38%
    06:00 +16°C° 0 mm 5 mps 720 mmHg 38%
    07:00 +17°C° 0 mm 6 mps 721 mmHg 35%
    08:00 +20°C° 0 mm 7 mps 721 mmHg 31%
    09:00 +22°C° 0 mm 7 mps 722 mmHg 28%
    10:00 +24°C° 0 mm 7 mps 721 mmHg 24%
    11:00 +27°C° 0 mm 7 mps 721 mmHg 20%
    12:00 +29°C° 0 mm 7 mps 720 mmHg 16%
    13:00 +30°C° 0 mm 6 mps 719 mmHg 14%
    14:00 +32°C° 0 mm 6 mps 719 mmHg 13%
    15:00 +33°C° 0 mm 6 mps 718 mmHg 11%
    16:00 +32°C° 0 mm 6 mps 718 mmHg 12%
    17:00 +32°C° 0 mm 6 mps 718 mmHg 12%
    18:00 +30°C° 0 mm 5 mps 718 mmHg 13%
    19:00 +28°C° 0 mm 5 mps 718 mmHg 15%
    20:00 +26°C° 0 mm 5 mps 719 mmHg 16%
    21:00 +25°C° 0 mm 5 mps 719 mmHg 18%
    22:00 +23°C° 0 mm 5 mps 719 mmHg 19%
    23:00 +22°C° 0 mm 4 mps 719 mmHg 21%

    28 March, Thursday

    Time Temperature Precipitation Wind Pressure Humidity
    00:00 +21°C° 0 mm 4 mps 719 mmHg 22%
    01:00 +20°C° 0 mm 4 mps 719 mmHg 23%
    02:00 +20°C° 0 mm 4 mps 718 mmHg 24%
    03:00 +19°C° 0 mm 4 mps 718 mmHg 24%
    04:00 +19°C° 0 mm 4 mps 718 mmHg 25%
    05:00 +18°C° 0 mm 4 mps 718 mmHg 25%
    06:00 +18°C° 0 mm 4 mps 718 mmHg 26%
    07:00 +20°C° 0 mm 4 mps 719 mmHg 23%
    08:00 +22°C° 0 mm 5 mps 719 mmHg 21%
    09:00 +26°C° 0 mm 5 mps 720 mmHg 18%
    10:00 +27°C° 0 mm 5 mps 719 mmHg 16%
    11:00 +29°C° 0 mm 5 mps 719 mmHg 13%
    12:00 +32°C° 0 mm 5 mps 718 mmHg 11%
    13:00 +33°C° 0 mm 5 mps 718 mmHg 10%
    14:00 +34°C° 0 mm 5 mps 717 mmHg 9%
    15:00 +35°C° 0 mm 6 mps 716 mmHg 8%
    16:00 +34°C° 0 mm 5 mps 717 mmHg 8%
    17:00 +33°C° 0 mm 5 mps 717 mmHg 9%
    18:00 +33°C° 0 mm 5 mps 717 mmHg 10%
    19:00 +30°C° 0 mm 5 mps 717 mmHg 11%
    20:00 +28°C° 0 mm 5 mps 718 mmHg 12%
    21:00 +27°C° 0 mm 4 mps 718 mmHg 13%
    22:00 +26°C° 0 mm 4 mps 718 mmHg 14%
    23:00 +25°C° 0 mm 4 mps 718 mmHg 15%

    29 March, Friday

    Time Temperature Precipitation Wind Pressure Humidity
    00:00 +23°C° 0 mm 4 mps 718 mmHg 16%
    01:00 +23°C° 0 mm 4 mps 717 mmHg 17%
    02:00 +22°C° 0 mm 4 mps 717 mmHg 17%
    03:00 +21°C° 0 mm 4 mps 717 mmHg 18%
    04:00 +21°C° 0 mm 4 mps 718 mmHg 19%
    05:00 +21°C° 0 mm 4 mps 718 mmHg 19%
    06:00 +21°C° 0 mm 4 mps 718 mmHg 20%
    07:00 +23°C° 0 mm 5 mps 719 mmHg 19%
    08:00 +26°C° 0 mm 6 mps 719 mmHg 17%
    09:00 +28°C° 0 mm 7 mps 720 mmHg 16%
    10:00 +29°C° 0 mm 7 mps 719 mmHg 15%
    11:00 +32°C° 0 mm 8 mps 719 mmHg 15%
    12:00 +34°C° 0 mm 8 mps 719 mmHg 14%
    13:00 +34°C° 0 mm 8 mps 718 mmHg 14%
    14:00 +35°C° 0 mm 8 mps 718 mmHg 14%
    15:00 +35°C° 0 mm 8 mps 717 mmHg 14%
    16:00 +34°C° 0 mm 8 mps 718 mmHg 15%
    17:00 +33°C° 0 mm 8 mps 718 mmHg 16%
    18:00 +32°C° 0 mm 8 mps 718 mmHg 18%
    19:00 +29°C° 0 mm 8 mps 719 mmHg 20%
    20:00 +28°C° 0 mm 7 mps 719 mmHg 23%
    21:00 +26°C° 0 mm 7 mps 720 mmHg 26%
    22:00 +24°C° 0 mm 8 mps 720 mmHg 32%
    23:00 +23°C° 0 mm 8 mps 720 mmHg 38%
    Show more